Flag for Belarus Weather past 2 weeks in Minsk, Belarus

Now
41 °F

Sunny.


Feels Like: 35 °F
Forecast: 44 / 51 °F
Wind: 10 mph from Southeast

Location: Loshitsa / Minsk International 1

Current Time: Mar 27, 2015 at 8:58:22 AM

Latest Report: Mar 27, 2015 at 8:00 AM


Visibility: 10 mi

Pressure: 29.95 "Hg

Humidity: 81%

Dew point: 36 °F

Location of MinskLocation

Historic Weather in Minsk — Graph

°F

Minsk temperature yesterday

Maximum temperature yesterday: 61 °F (at 3:00 PM)
Minimum temperature yesterday: 36 °F (at 8:00 AM)
Average temperature yesterday: 52 °F

Past Weeks' High & Low Weather Summary

 TemperatureHumidityPressure
High61 °F (Mar 26, 3:00 PM)93% (Mar 21, 7:00 PM)30.92 "Hg (Mar 21, 7:00 PM)
Low25 °F (Mar 22, 7:00 AM)20% (Mar 17, 1:00 PM)29.77 "Hg (Mar 21, 5:00 PM)
Average42 °F57%30.29 "Hg
* Reported Mar 12 7:30 AM — Mar 27 7:30 AM, Minsk, Weather by CustomWeather, © 2015

Note: Actual official high and low records may vary slightly from our data, if they occured in-between our weather recording intervals... More about our weather records

Advertising

Minsk weather history for previous 24 hours

 ConditionsComfort  
Time TempWeatherWind HumidityBarometerVisibility
7:30 AM
Fri, Mar 27
39 °FClear.8 mph87%29.95 "Hg4 mi
9:00 PM
Thu, Mar 26
52 °FFog.8 mph72%29.95 "Hg3 mi
8:30 PM55 °FClear.10 mph63%29.95 "Hg4 mi
8:00 PM55 °FSunny.10 mph63%29.95 "Hg10 mi
7:30 PM57 °FSunny.10 mph63%29.95 "Hg10 mi
7:00 PM57 °FSunny.10 mph63%29.95 "Hg10 mi
6:30 PM59 °FSunny.10 mph59%29.95 "Hg10 mi
6:00 PM59 °FSunny.10 mph59%29.95 "Hg10 mi
5:30 PM59 °FSunny.10 mph59%29.98 "Hg10 mi
5:00 PM59 °FSunny.10 mph59%29.98 "Hg10 mi
4:30 PM59 °FSunny.10 mph55%29.98 "Hg10 mi
4:00 PM59 °FSunny.10 mph55%29.98 "Hg10 mi
3:30 PM61 °FSunny.10 mph55%30.01 "Hg10 mi
3:00 PM61 °FSunny.10 mph55%30.01 "Hg10 mi
2:30 PM59 °FClear.10 mph59%30.01 "Hg4 mi
2:00 PM59 °FClear.10 mph59%30.01 "Hg4 mi
1:30 PM57 °FCool.10 mph63%30.01 "Hg4 mi
1:00 PM57 °FSunny.10 mph63%30.04 "Hg10 mi
12:30 PM54 °FSunny.10 mph67%30.04 "Hg10 mi
12:00 PM54 °FSunny.10 mph67%30.04 "Hg10 mi
11:30 AM48 °FClear.10 mph76%30.07 "Hg4 mi
11:00 AM48 °FClear.6 mph76%30.07 "Hg4 mi
10:30 AM45 °FClear.6 mph81%30.07 "Hg4 mi
10:00 AM45 °FClear.3 mph81%30.07 "Hg4 mi
9:30 AM41 °FFog.No wind81%30.07 "Hg3 mi
9:00 AM41 °FFog.No wind81%30.07 "Hg3 mi
8:30 AM36 °FFog.1 mph93%30.07 "Hg3 mi
8:00 AM36 °FFog.1 mph93%30.07 "Hg3 mi
Weather by CustomWeather, © 2015

See weather overviewHow to use our weather pages